Weather History for KBWG - December, 2013

Change the Weather History Date:

Thursday, December 19, 2013

  Actual Average Record
Temperature  
Mean Temperature 49 °F 38 °F  
Max Temperature 62 °F 47 °F 72 °F (1895)
Min Temperature 36 °F 28 °F -2 °F (1963)
Degree Days  
Heating Degree Days 16 27  
Month to date heating degree days 492 477  
Since 1 July heating degree days 1372 1240  
Cooling Degree Days 0 0  
Month to date cooling degree days 0 0  
Year to date cooling degree days 1499 1491  
Moisture  
Dew Point 32 °F    
Average Humidity 50    
Maximum Humidity 61    
Minimum Humidity 38    
Precipitation  
Precipitation 0.00 in 0.15 in 1.60 in (1957)
Month to date precipitation 2.97 3.08  
Year to date precipitation 57.62 48.17  
Snow  
Snow 0.00 in 0.00 in 4.00 in (1916)
Month to date snowfall 0.1 0.5  
Since 1 July snowfall 1.2 0.5  
Snow Depth 0.00 in    
Sea Level Pressure  
Sea Level Pressure 30.11 in    
Wind  
Wind Speed 11 mph (SSW)    
Max Wind Speed 24 mph    
Max Gust Speed 31 mph    
Visibility 10 miles    
Events      
T = Trace of Precipitation, MM = Missing Value Source: NWS Daily Summary

Daily Weather History Graph

Daily Weather History Graph

Search for Another Location

Airport or City:

Trip Planner

Search our weather history database for the weather conditions in past years. The results will help you decide how hot, cold, wet, or windy it might be!

Date:

Astronomy

Dec. 19, 2013 Rise Set
Actual Time 6:54 AM CST 4:31 PM CST
Civil Twilight 6:25 AM CST 5:00 PM CST
Nautical Twilight 5:52 AM CST 5:33 PM CST
Astronomical Twilight 5:20 AM CST 6:05 PM CST
Moon 6:54 PM CST (12/19) 8:15 AM CST (12/19)
Length of Visible Light 10h 35m
Length of Day
9h 37m
Waning Gibbous, 95% of the Moon is Illuminated
Dec 19
Waning Gibbous
Dec 25
Last Quarter
Jan 1
New
Jan 7
First Quarter
Jan 15
Full

Hourly Weather History & Observations

Time (CST) Temp. Windchill Dew Point Humidity Pressure Visibility Wind Dir Wind Speed Gust Speed Precip Events Conditions
12:53 AM 41.0 °F 35.2 °F 21.0 °F 45% 30.14 in 10.0 mi SSW 9.2 mph - N/A   Clear
1:53 AM 39.9 °F 35.8 °F 21.9 °F 49% 30.16 in 10.0 mi South 5.8 mph - N/A   Clear
2:53 AM 39.9 °F 33.9 °F 23.0 °F 51% 30.15 in 10.0 mi South 9.2 mph - N/A   Clear
3:53 AM 41.0 °F 38.0 °F 23.0 °F 49% 30.15 in 10.0 mi SSW 4.6 mph - N/A   Clear
4:53 AM 39.9 °F 36.7 °F 23.0 °F 51% 30.17 in 10.0 mi SSW 4.6 mph - N/A   Clear
5:53 AM 37.0 °F 31.6 °F 24.1 °F 59% 30.16 in 10.0 mi South 6.9 mph - N/A   Clear
6:53 AM 39.9 °F 33.4 °F 25.0 °F 55% 30.17 in 10.0 mi SSW 10.4 mph - N/A   Clear
7:53 AM 44.1 °F 36.8 °F 27.0 °F 51% 30.19 in 10.0 mi SSW 16.1 mph - N/A   Clear
8:53 AM 48.9 °F - 30.0 °F 48% 30.20 in 10.0 mi SSW 13.8 mph - N/A   Clear
9:53 AM 52.0 °F - 30.9 °F 45% 30.20 in 10.0 mi SSW 13.8 mph - N/A   Scattered Clouds
10:53 AM 55.0 °F - 34.0 °F 45% 30.18 in 10.0 mi SSW 13.8 mph 26.5 mph N/A   Clear
11:53 AM 55.9 °F - 36.0 °F 47% 30.14 in 10.0 mi SSW 16.1 mph - N/A   Clear
12:53 PM 59.0 °F - 41.0 °F 51% 30.12 in 10.0 mi SSW 12.7 mph 24.2 mph N/A   Clear
1:53 PM 62.1 °F - 42.1 °F 48% 30.09 in 10.0 mi SSW 12.7 mph 26.5 mph N/A   Clear
2:53 PM 61.0 °F - 42.1 °F 50% 30.09 in 10.0 mi SW 13.8 mph - N/A   Mostly Cloudy
3:53 PM 57.9 °F - 43.0 °F 58% 30.08 in 10.0 mi South 6.9 mph - N/A   Mostly Cloudy
4:53 PM 55.9 °F - 42.1 °F 60% 30.06 in 10.0 mi South 5.8 mph - N/A   Mostly Cloudy
5:53 PM 57.0 °F - 42.1 °F 57% 30.04 in 10.0 mi South 8.1 mph - N/A   Overcast
6:53 PM 55.9 °F - 36.0 °F 47% 30.05 in 10.0 mi South 9.2 mph - N/A   Overcast
7:53 PM 55.9 °F - 32.0 °F 40% 30.03 in 10.0 mi South 12.7 mph - N/A   Overcast
8:53 PM 55.0 °F - 30.0 °F 38% 30.04 in 10.0 mi South 12.7 mph - N/A   Overcast
9:53 PM 54.0 °F - 30.0 °F 40% 30.04 in 10.0 mi South 15.0 mph 21.9 mph N/A   Scattered Clouds
10:53 PM 54.0 °F - 30.0 °F 40% 30.03 in 10.0 mi South 12.7 mph 19.6 mph N/A   Scattered Clouds
11:53 PM 54.0 °F - 28.9 °F 38% 30.02 in 10.0 mi South 15.0 mph - N/A   Overcast